Change the Weather History Date:

Friday, June 14, 2013

  Actual Average Record
Temperature  
Mean Temperature 60 °F -  
Max Temperature 71 °F 59 °F 71 °F (2004)
Min Temperature 48 °F 39 °F 28 °F (2001)
Degree Days  
Heating Degree Days 6    
Growing Degree Days 10 (Base 50)    
Moisture  
Dew Point 44 °F    
Average Humidity 62    
Maximum Humidity 88    
Minimum Humidity 35    
Precipitation  
Precipitation 0.02 in - - ()
Sea Level Pressure  
Sea Level Pressure 30.09 in    
Wind  
Wind Speed 5 mph (WNW)    
Max Wind Speed 16 mph    
Max Gust Speed 24 mph    
Visibility 10 miles    
Events      
Averages and records for this station are not official NWS values.
T = Trace of Precipitation, MM = Missing Value Source: NWS Daily Summary

Daily Weather History Graph

Daily Weather History Graph

Search for Another Location

Airport or City:

Trip Planner

Search our weather history database for the weather conditions in past years. The results will help you decide how hot, cold, wet, or windy it might be!

Date:

Astronomy

Jun. 14, 2013 Rise Set
Actual Time 3:24 AM AKDT 2:19 AM AKDT
Civil Twilight Sun does not rise Sun does not rise
Nautical Twilight Sun does not rise Sun does not rise
Astronomical Twilight Sun does not rise Sun does not rise
Moon 12:29 PM AKDT (6/14) 2:25 AM AKDT (6/14)
Length of Visible Light 24h 00m
Length of Day
22h 55m
Waxing Crescent, 31% of the Moon is Illuminated
Jun 14
Waxing Crescent
Jun 16
First Quarter
Jun 23
Full
Jun 29
Last Quarter
Jul 7
New

Hourly Weather History & Observations

Time (AKDT) Temp. Dew Point Humidity Pressure Visibility Wind Dir Wind Speed Gust Speed Precip Events Conditions
1:56 AM 60.8 °F 44.6 °F 55% 30.05 in 10.0 mi NNE 4.6 mph - N/A   Clear
2:16 AM 59.0 °F 42.8 °F 55% 30.05 in 10.0 mi North 6.9 mph - N/A   Partly Cloudy
2:36 AM 57.2 °F 42.8 °F 59% 30.05 in 10.0 mi North 6.9 mph - N/A   Partly Cloudy
2:56 AM 55.4 °F 44.6 °F 67% 30.05 in 10.0 mi NNW 5.8 mph - N/A   Clear
3:16 AM 53.6 °F 41.0 °F 62% 30.05 in 10.0 mi Calm Calm - N/A   Clear
3:36 AM 51.8 °F 39.2 °F 62% 30.05 in 10.0 mi NNW 5.8 mph - N/A   Clear
3:56 AM 51.8 °F 41.0 °F 67% 30.05 in 10.0 mi Calm Calm - N/A   Clear
4:16 AM 53.6 °F 42.8 °F 67% 30.05 in 10.0 mi NNW 4.6 mph - N/A   Mostly Cloudy
4:36 AM 51.8 °F 42.8 °F 71% 30.05 in 10.0 mi NNW 3.5 mph - N/A   Partly Cloudy
4:56 AM 48.2 °F 39.2 °F 71% 30.05 in 10.0 mi Calm Calm - N/A   Clear
5:16 AM 51.8 °F 42.8 °F 71% 30.05 in 10.0 mi Calm Calm - N/A   Clear
5:36 AM 53.6 °F 42.8 °F 67% 30.05 in 10.0 mi NNW 3.5 mph - N/A   Clear
5:56 AM 51.8 °F 44.6 °F 76% 30.04 in 10.0 mi North 4.6 mph - N/A   Clear
6:16 AM 53.6 °F 42.8 °F 67% 30.04 in 10.0 mi North 6.9 mph - N/A   Clear
6:36 AM 53.6 °F 42.8 °F 67% 30.05 in 10.0 mi North 6.9 mph - N/A   Clear
6:56 AM 53.6 °F 42.8 °F 67% 30.04 in 10.0 mi North 5.8 mph - N/A   Clear
7:16 AM 53.6 °F 42.8 °F 67% 30.04 in 10.0 mi NNW 4.6 mph - N/A   Clear
7:36 AM 55.4 °F 42.8 °F 63% 30.05 in 10.0 mi NE 3.5 mph - N/A   Clear
7:56 AM 55.4 °F 42.8 °F 63% 30.04 in 10.0 mi North 3.5 mph - N/A   Clear
8:16 AM 57.2 °F 42.8 °F 59% 30.04 in 10.0 mi NE 4.6 mph - N/A   Clear
8:36 AM 59.0 °F 42.8 °F 55% 30.04 in 10.0 mi NE 4.6 mph - N/A   Clear
8:56 AM 60.8 °F 42.8 °F 52% 30.05 in 10.0 mi East 3.5 mph - N/A   Clear
9:16 AM 60.8 °F 42.8 °F 52% 30.05 in 10.0 mi ENE 3.5 mph - N/A   Clear
9:36 AM 62.6 °F 42.8 °F 48% 30.05 in 10.0 mi Calm Calm - N/A   Clear
9:56 AM 62.6 °F 44.6 °F 52% 30.03 in 10.0 mi Calm Calm - N/A   Clear
10:16 AM 64.4 °F 44.6 °F 49% 30.03 in 10.0 mi ESE 3.5 mph - N/A   Partly Cloudy
10:36 AM 66.2 °F 44.6 °F 46% 30.03 in 10.0 mi Calm Calm - N/A   Scattered Clouds
10:56 AM 68.0 °F 42.8 °F 40% 30.03 in 10.0 mi SSE 5.8 mph - N/A   Clear
11:16 AM 68.0 °F 42.8 °F 40% 30.03 in 10.0 mi SSE 11.5 mph - N/A   Clear
11:36 AM 69.8 °F 41.0 °F 35% 30.03 in 10.0 mi SSE 12.7 mph - N/A   Clear
11:56 AM 69.8 °F 41.0 °F 35% 30.03 in 10.0 mi SSE 9.2 mph - N/A   Clear
12:16 PM 69.8 °F 44.6 °F 40% 30.03 in 10.0 mi South 6.9 mph - N/A   Clear
12:36 PM 69.8 °F 44.6 °F 40% 30.03 in 10.0 mi SSE 10.4 mph - N/A   Clear
12:56 PM 69.8 °F 46.4 °F 43% 30.03 in 10.0 mi SSE 8.1 mph - N/A   Clear
1:16 PM 71.6 °F 44.6 °F 38% 30.04 in 10.0 mi South 15.0 mph 20.7 mph N/A   Clear
1:36 PM 69.8 °F 44.6 °F 40% 30.04 in 10.0 mi SW 16.1 mph - N/A   Clear
1:56 PM 66.2 °F 44.6 °F 46% 30.06 in 10.0 mi SW 16.1 mph 20.7 mph N/A   Clear
2:16 PM 64.4 °F 42.8 °F 45% 30.07 in 10.0 mi SSW 11.5 mph - N/A   Clear
2:36 PM 62.6 °F 41.0 °F 45% 30.08 in 10.0 mi SSW 12.7 mph - N/A   Scattered Clouds
2:56 PM 60.8 °F 41.0 °F 48% 30.09 in 10.0 mi SSW 12.7 mph 24.2 mph N/A   Mostly Cloudy
3:16 PM 60.8 °F 42.8 °F 52% 30.13 in 10.0 mi SW 13.8 mph 19.6 mph N/A   Mostly Cloudy
3:36 PM 57.2 °F 41.0 °F 55% 30.12 in 10.0 mi West 11.5 mph - N/A   Mostly Cloudy
3:56 PM 55.4 °F 41.0 °F 58% 30.12 in 10.0 mi West 13.8 mph - N/A   Mostly Cloudy
4:16 PM 55.4 °F 41.0 °F 58% 30.14 in 10.0 mi WSW 12.7 mph - N/A   Overcast
4:36 PM 53.6 °F 42.8 °F 67% 30.14 in 10.0 mi SW 3.5 mph - N/A   Overcast
4:56 PM 53.6 °F 42.8 °F 67% 30.15 in 10.0 mi Calm Calm - N/A   Mostly Cloudy
5:16 PM 53.6 °F 42.8 °F 67% 30.16 in 10.0 mi SW 4.6 mph - N/A   Mostly Cloudy
5:36 PM 55.4 °F 44.6 °F 67% 30.16 in 10.0 mi NW 3.5 mph - N/A   Mostly Cloudy
5:56 PM 53.6 °F 42.8 °F 67% 30.16 in 5.0 mi SSW 3.5 mph - N/A   Mostly Cloudy
6:16 PM 53.6 °F 42.8 °F 67% 30.17 in 10.0 mi SW 5.8 mph - N/A   Overcast
6:36 PM 55.4 °F 42.8 °F 63% 30.17 in 10.0 mi Calm Calm - N/A   Overcast
6:56 PM 55.4 °F 42.8 °F 63% 30.17 in 10.0 mi Calm Calm - N/A   Mostly Cloudy
7:16 PM 53.6 °F 44.6 °F 72% 30.17 in 8.0 mi NNE 4.6 mph - 0.01 in   Mostly Cloudy
7:36 PM 51.8 °F 44.6 °F 76% 30.17 in 10.0 mi North 6.9 mph - 0.01 in   Mostly Cloudy
7:56 PM 51.8 °F 46.4 °F 82% 30.16 in 10.0 mi NW 5.8 mph - 0.01 in   Overcast
8:16 PM 51.8 °F 46.4 °F 82% 30.15 in 10.0 mi NNW 6.9 mph - N/A   Overcast
8:36 PM 51.8 °F 46.4 °F 82% 30.15 in 10.0 mi NW 3.5 mph - N/A   Overcast
8:56 PM 51.8 °F 46.4 °F 82% 30.15 in 10.0 mi Calm Calm - N/A   Overcast
9:16 PM 51.8 °F 46.4 °F 82% 30.14 in 9.0 mi East 4.6 mph - 0.01 in   Overcast
9:36 PM 51.8 °F 46.4 °F 82% 30.15 in 10.0 mi WSW 5.8 mph - 0.01 in   Mostly Cloudy
9:56 PM 51.8 °F 46.4 °F 82% 30.15 in 10.0 mi Calm Calm - 0.01 in   Overcast
10:16 PM 51.8 °F 48.2 °F 88% 30.16 in 10.0 mi WNW 4.6 mph - N/A   Overcast
10:36 PM 51.8 °F 46.4 °F 82% 30.16 in 9.0 mi Calm Calm - N/A   Overcast
10:56 PM 51.8 °F 48.2 °F 88% 30.16 in 9.0 mi SW 3.5 mph - N/A   Overcast
11:16 PM 51.8 °F 48.2 °F 88% 30.16 in 10.0 mi Calm Calm - N/A   Overcast
11:36 PM 51.8 °F 48.2 °F 88% 30.16 in 10.0 mi Calm Calm - N/A   Overcast
11:56 PM 51.8 °F 48.2 °F 88% 30.16 in 10.0 mi Calm Calm - N/A   Overcast